KJ4YRE Weather Reports


time (UTC)temp
F
wind
direction
speed
knots
gust
knots
rain 1hr
in
rain 24hr
in
rain mn
in
humidity
%
barometer
mb
20260502195005 61 61 1.7 6.1 0.00 0.00 0.00 47 1012.7
20260502194505 61 78 2.6 7.0 0.00 0.00 0.00 49 1012.7
20260502194005 61 75 2.6 7.0 0.00 0.00 0.00 50 1012.8
20260502193506 61 77 3.5 8.7 0.00 0.00 0.00 48 1012.8
20260502193008 61 79 0.0 2.6 0.00 0.00 0.00 50 1012.8
20260502192506 61 76 1.7 4.3 0.00 0.00 0.00 50 1013.0
20260502192005 60 77 1.7 5.2 0.00 0.00 0.00 51 1013.0
20260502191717 60 72 1.7 5.2 0.00 0.00 0.00 51 1013.1
20260502191007 61 82 1.7 5.2 0.00 0.00 0.00 49 1013.2
20260502190506 62 75 2.6 8.7 0.00 0.00 0.00 47 1013.2
20260502190007 62 76 1.7 7.0 0.00 0.00 0.00 48 1013.2
20260502185715 64 72 1.7 5.2 0.00 0.00 0.00 50 1013.2
20260502185008 62 79 2.6 6.1 0.00 0.00 0.00 49 1013.2
20260502184507 62 83 1.7 6.1 0.00 0.00 0.00 49 1013.2
20260502184216 60 76 1.7 5.2 0.00 0.00 0.00 49 1013.4
20260502183006 60 81 1.7 5.2 0.00 0.00 0.00 52 1013.6
20260502182006 59 81 2.6 7.8 0.00 0.00 0.00 53 1013.9
20260502181505 58 70 4.3 7.8 0.00 0.00 0.00 53 1013.9
20260502181215 59 76 2.6 6.1 0.00 0.00 0.00 55 1013.9
20260502180506 58 75 1.7 4.3 0.00 0.00 0.00 57 1014.0
20260502180217 58 75 1.7 6.1 0.00 0.00 0.00 57 1014.1
20260502170507 57 68 2.6 6.1 0.00 0.00 0.00 58 1014.8
20260502164005 57 74 2.6 5.2 0.00 0.00 0.00 61 1014.8
20260502163716 57 66 1.7 6.1 0.00 0.00 0.00 62 1014.9
20260502163007 57 73 2.6 6.1 0.00 0.00 0.00 61 1014.8
20260502162714 58 72 2.6 7.0 0.00 0.00 0.00 61 1014.9
20260502162215 58 70 4.3 8.7 0.00 0.00 0.00 62 1014.9
20260502161506 57 77 1.7 7.0 0.00 0.00 0.00 63 1014.9
20260502161005 57 77 1.7 7.8 0.00 0.00 0.00 65 1015.0
20260502160507 57 79 1.7 7.0 0.00 0.00 0.00 64 1015.1
20260502151717 57 73 2.6 6.1 0.00 0.00 0.00 68 1015.2
20260502151005 56 77 0.9 2.6 0.00 0.00 0.00 69 1015.2
20260502150717 56 75 0.9 4.3 0.00 0.00 0.00 69 1015.4
20260502130507 55 77 1.7 4.3 0.00 0.00 0.00 81 1015.1
20260502123505 54 77 0.9 1.7 0.00 0.00 0.00 84 1014.8
20260502123007 53 78 0.9 2.6 0.00 0.00 0.00 84 1014.8
20260502122505 53 79 1.7 5.2 0.00 0.00 0.00 84 1014.7
20260502122005 53 77 1.7 6.1 0.00 0.00 0.00 85 1014.7
20260502121505 53 73 1.7 4.3 0.00 0.00 0.00 85 1014.6
20260502121005 53 76 1.7 5.2 0.00 0.00 0.00 86 1014.7
20260502120716 53 70 0.9 2.6 0.00 0.00 0.00 86 1014.7
20260502115504 53 79 2.6 6.1 0.00 0.00 0.00 87 1014.6
20260502115006 53 77 1.7 4.3 0.00 0.00 0.00 88 1014.7
20260502114507 53 135 0.9 2.6 0.00 0.00 0.00 89 1014.7
20260502114006 53 65 0.9 6.1 0.00 0.00 0.00 88 1014.7
20260502113508 52 78 1.7 4.3 0.00 0.00 0.00 88 1014.8
20260502113006 52 79 0.9 2.6 0.00 0.00 0.00 91 1014.6
20260502112505 52 77 0.9 1.7 0.00 0.00 0.00 93 1014.5
20260502112007 52 77 0.0 1.7 0.00 0.00 0.00 93 1014.5
20260502111505 52 75 0.9 1.7 0.00 0.00 0.00 92 1014.7
20260502111217 52 77 0.9 1.7 0.00 0.00 0.00 92 1014.6
20260502110506 51 77 0.0 0.9 0.00 0.00 0.00 93 1014.4
20260502110005 51 77 0.9 2.6 0.00 0.00 0.00 93 1014.4
20260502105505 51 71 0.9 2.6 0.00 0.00 0.00 94 1014.4
20260502105005 51 64 0.9 4.3 0.00 0.00 0.00 95 1014.2
20260502104505 51 65 1.7 2.6 0.00 0.00 0.00 95 1014.1
20260502104006 51 73 0.9 2.6 0.00 0.00 0.00 96 1014.0
20260502103506 50 68 0.9 1.7 0.00 0.00 0.00 98 1013.6
20260502103008 50 63 0.0 0.9 0.00 0.00 0.00 100 1013.3
20260502102506 50 77 0.9 0.9 0.00 0.00 0.00 100 1013.3
20260502102006 50 63 0.0 1.7 0.00 0.00 0.00 100 1013.2
20260502101505 49 73 0.9 2.6 0.00 0.00 0.00 100 1013.1
20260502101006 49 73 0.9 2.6 0.00 0.00 0.00 100 1013.1
20260502100505 49 70 0.9 1.7 0.00 0.00 0.00 100 1013.2
20260502091506 49 77 0.0 0.0 0.00 0.00 0.00 100 1012.9
20260502091006 49 77 0.0 0.0 0.00 0.00 0.00 100 1012.8
20260502090717 49 82 0.0 0.0 0.00 0.00 0.00 100 1012.9
20260502071006 51 74 0.9 1.7 0.00 0.00 0.00 99 1013.1
20260502070507 51 73 0.9 4.3 0.00 0.00 0.00 100 1012.8
20260502070007 51 77 2.6 4.3 0.00 0.00 0.00 99 1012.9
20260502065505 51 77 0.9 1.7 0.00 0.00 0.00 98 1012.7
20260502065007 51 77 0.0 0.9 0.00 0.00 0.00 98 1012.7
20260502064506 51 67 0.9 1.7 0.00 0.00 0.00 98 1012.6
20260502064005 51 217 1.7 4.3 0.00 0.00 0.00 98 1012.6
20260502063506 51 225 0.0 1.7 0.00 0.00 0.00 98 1012.6
20260502063005 51 230 1.7 2.6 0.00 0.00 0.00 98 1012.7
20260502062505 51 242 0.9 1.7 0.00 0.00 0.00 97 1012.9
20260502062006 51 206 0.9 1.7 0.00 0.00 0.00 96 1012.9
20260502061217 51 212 0.0 2.6 0.00 0.00 0.00 96 1013.2
20260502060506 51 240 0.9 2.6 0.00 0.00 0.00 95 1013.3
20260502060006 52 235 0.0 1.7 0.00 0.00 0.00 94 1013.5
20260502055507 52 252 0.0 1.7 0.00 0.00 0.00 95 1013.4
20260502055006 52 227 0.0 2.6 0.00 0.00 0.00 94 1013.5
20260502054505 52 229 0.9 2.6 0.00 0.00 0.00 93 1013.5
20260502054006 53 234 0.9 1.7 0.00 0.00 0.00 93 1013.7
20260502053505 53 218 0.9 1.7 0.00 0.00 0.00 92 1013.6
20260502053217 53 228 1.7 2.6 0.00 0.00 0.00 92 1013.7
20260502052505 53 237 1.7 2.6 0.00 0.00 0.00 91 1013.8
20260502052006 54 228 1.7 5.2 0.00 0.00 0.00 91 1013.9
20260502051506 54 228 1.7 5.2 0.00 0.00 0.00 90 1014.0
20260502051005 54 231 1.7 4.3 0.00 0.00 0.00 90 1014.0
20260502050505 54 217 0.9 2.6 0.00 0.00 0.00 90 1014.2
20260502050006 54 244 1.7 4.3 0.00 0.00 0.00 90 1014.1
20260502045505 54 181 1.7 5.2 0.00 0.00 0.00 89 1014.1
20260502045005 54 250 1.7 5.2 0.00 0.00 0.00 89 1014.1
20260502044505 54 281 3.5 7.8 0.00 0.00 0.00 90 1014.2
20260502044214 54 252 0.9 6.1 0.00 0.00 0.00 89 1014.3
20260502043715 54 248 0.9 4.3 0.00 0.00 0.00 89 1014.4
20260502043007 55 233 2.6 7.0 0.00 0.00 0.00 89 1014.4
20260502042505 55 204 2.6 7.8 0.00 0.00 0.00 89 1014.3
20260502042005 55 226 2.6 6.1 0.00 0.00 0.00 89 1014.4
20260502041715 55 242 2.6 6.1 0.00 0.00 0.00 88 1014.3
20260502041006 55 235 2.6 6.1 0.00 0.00 0.00 88 1014.3
20260502040717 55 229 2.6 8.7 0.00 0.00 0.00 88 1014.4
20260502040009 55 264 4.3 8.7 0.00 0.00 0.00 88 1014.4
20260502035506 55 229 1.7 5.2 0.00 0.00 0.00 88 1014.5
20260502035007 55 238 3.5 7.0 0.00 0.00 0.00 87 1014.5
20260502034505 55 269 2.6 8.7 0.00 0.00 0.00 88 1014.5
20260502034005 55 263 2.6 6.1 0.00 0.00 0.00 87 1014.5
20260502033504 55 240 1.7 6.1 0.00 0.00 0.00 88 1014.5
20260502033006 55 204 1.7 5.2 0.00 0.00 0.00 86 1014.4
20260502032504 55 219 3.5 7.0 0.00 0.00 0.00 86 1014.2
20260502032006 55 204 1.7 6.1 0.00 0.00 0.00 86 1014.1
20260502031717 55 228 1.7 6.1 0.00 0.00 0.00 87 1014.0
20260502031216 55 220 1.7 5.2 0.00 0.00 0.00 86 1014.0
20260502030505 55 241 0.9 2.6 0.00 0.00 0.00 86 1013.9
20260502030216 55 237 1.7 4.3 0.00 0.00 0.00 86 1013.8
20260502025505 55 31 0.9 2.6 0.00 0.00 0.00 85 1013.7
20260502025005 55 242 1.7 8.7 0.00 0.00 0.00 85 1013.8
20260502024716 55 234 0.9 6.1 0.00 0.00 0.00 85 1014.0
20260502024215 55 205 0.9 4.3 0.00 0.00 0.00 85 1014.1
20260502023714 54 233 3.5 5.2 0.00 0.00 0.00 86 1014.2
20260502023007 54 263 2.6 6.1 0.00 0.00 0.00 87 1014.1
20260502022505 53 140 1.7 2.6 0.00 0.00 0.00 87 1014.1
20260502022005 52 184 0.9 2.6 0.00 0.00 0.00 89 1014.0
20260502021506 52 169 0.9 1.7 0.00 0.00 0.00 89 1014.0
20260502021215 51 160 0.9 1.7 0.00 0.00 0.00 89 1014.0
20260502020505 51 172 0.9 0.9 0.00 0.00 0.00 91 1014.0
20260502020215 51 146 0.0 0.9 0.00 0.00 0.00 91 1014.0
20260502015505 51 189 0.0 0.9 0.00 0.00 0.00 87 1014.1
20260502015004 52 169 0.0 0.0 0.00 0.00 0.00 87 1014.0
20260502014505 52 176 0.0 0.9 0.00 0.00 0.00 87 1014.0
20260502014005 52 163 0.9 0.9 0.00 0.00 0.00 87 1014.0
20260502013506 52 188 0.0 0.0 0.00 0.00 0.00 86 1014.1
20260502013006 52 238 0.0 0.0 0.00 0.00 0.00 84 1014.0
20260502012506 53 244 0.0 0.0 0.00 0.00 0.00 84 1014.0
20260502012007 53 156 0.0 0.0 0.00 0.00 0.00 85 1013.9
20260502011505 53 136 0.0 0.0 0.00 0.00 0.00 84 1013.9
20260502011006 54 139 0.0 0.0 0.00 0.00 0.00 82 1013.8
20260502010507 54 193 0.0 2.6 0.00 0.00 0.00 82 1013.8
20260502010216 54 132 0.9 1.7 0.00 0.00 0.00 81 1013.7
20260502005717 55 161 0.9 2.6 0.00 0.00 0.00 79 1013.5
20260502005006 55 140 1.7 4.3 0.00 0.00 0.00 79 1013.3
20260502004505 55 164 0.9 2.6 0.00 0.00 0.00 78 1013.3
20260502004005 56 150 1.7 4.3 0.00 0.00 0.00 78 1013.3
20260502003717 56 128 1.7 4.3 0.00 0.00 0.00 77 1013.1
20260502003216 56 120 1.7 5.2 0.00 0.00 0.00 77 1013.1
20260502002505 56 174 1.7 4.3 0.00 0.00 0.00 76 1013.1
20260502002006 57 144 1.7 4.3 0.00 0.00 0.00 75 1013.2
20260502001506 57 165 1.7 6.1 0.00 0.00 0.00 75 1013.2
20260502001007 57 144 0.9 6.1 0.00 0.00 0.00 74 1013.1
20260502000505 58 117 1.7 6.1 0.00 0.00 0.00 73 1013.1
20260502000218 58 153 1.7 7.0 0.00 0.00 0.00 73 1013.0
20260501235717 58 171 1.7 6.1 0.00 0.00 0.00 72 1012.9
20260501235005 59 160 1.7 7.0 0.00 0.00 0.00 71 1013.0
20260501234506 59 147 3.5 6.1 0.00 0.00 0.00 72 1013.0
20260501234005 59 176 3.5 10.4 0.00 0.00 0.00 71 1012.9
20260501233715 60 158 3.5 6.1 0.00 0.00 0.00 70 1013.0
20260501233218 60 161 2.6 7.8 0.00 0.00 0.00 69 1013.0
20260501232505 60 166 1.7 6.1 0.00 0.00 0.00 69 1012.9
20260501232217 60 145 2.6 7.0 0.00 0.00 0.00 68 1012.9
20260501231505 61 127 2.6 10.4 0.00 0.00 0.00 67 1012.9
20260501231006 61 139 5.2 10.4 0.00 0.00 0.00 65 1012.9
20260501230716 62 134 2.6 10.4 0.00 0.00 0.00 64 1012.8
20260501230007 62 173 4.3 10.4 0.00 0.00 0.00 62 1012.7
20260501225505 63 169 2.6 8.7 0.00 0.00 0.00 60 1012.7
20260501225215 65 123 5.2 8.7 0.00 0.00 0.00 56 1012.6
20260501224506 66 182 2.6 7.8 0.00 0.00 0.00 53 1012.6
20260501224215 67 138 4.3 10.4 0.00 0.00 0.00 51 1012.7
20260501223504 68 179 3.5 8.7 0.00 0.00 0.00 48 1012.5
20260501223007 69 176 2.6 10.4 0.00 0.00 0.00 47 1012.6
20260501222504 70 172 5.2 10.4 0.00 0.00 0.00 44 1012.5
20260501222215 70 191 0.9 8.7 0.00 0.00 0.00 37 1012.6
20260501221505 70 117 2.6 7.0 0.00 0.00 0.00 35 1012.5
20260501221005 70 217 2.6 10.4 0.00 0.00 0.00 36 1012.5
20260501220506 70 265 0.9 7.0 0.00 0.00 0.00 39 1012.5
20260501220006 70 250 3.5 6.1 0.00 0.00 0.00 41 1012.6
20260501215506 70 245 3.5 8.7 0.00 0.00 0.00 41 1012.6
20260501215006 70 255 1.7 8.7 0.00 0.00 0.00 42 1012.6
20260501214716 71 205 1.7 4.3 0.00 0.00 0.00 41 1012.6
20260501214007 71 207 0.9 5.2 0.00 0.00 0.00 39 1012.5
20260501213506 71 253 0.9 5.2 0.00 0.00 0.00 39 1012.6
20260501213006 70 233 2.6 10.4 0.00 0.00 0.00 39 1012.6
20260501212505 70 216 3.5 7.8 0.00 0.00 0.00 39 1012.7
20260501212005 70 232 2.6 11.3 0.00 0.00 0.00 40 1012.8
20260501211716 71 144 4.3 10.4 0.00 0.00 0.00 37 1012.6
20260501211005 71 139 2.6 7.0 0.00 0.00 0.00 36 1012.8
20260501210504 70 174 1.7 7.8 0.00 0.00 0.00 38 1012.8
20260501210215 69 234 3.5 7.0 0.00 0.00 0.00 39 1013.0
20260501205505 70 269 2.6 6.1 0.00 0.00 0.00 38 1013.1
20260501205006 69 144 4.3 7.8 0.00 0.00 0.00 38 1013.1
20260501204505 71 168 2.6 7.8 0.00 0.00 0.00 36 1013.1
20260501204214 70 272 2.6 8.7 0.00 0.00 0.00 36 1013.1
20260501203715 70 175 3.5 8.7 0.00 0.00 0.00 36 1013.1
20260501203005 69 132 3.5 7.0 0.00 0.00 0.00 38 1013.3
20260501202505 70 139 2.6 7.8 0.00 0.00 0.00 39 1013.4
20260501202216 69 357 3.5 12.2 0.00 0.00 0.00 40 1013.2
20260501201715 70 176 4.3 8.7 0.00 0.00 0.00 43 1013.4
20260501201005 68 246 4.3 7.8 0.00 0.00 0.00 41 1013.6
20260501200717 68 137 2.6 10.4 0.00 0.00 0.00 41 1013.7
20260501200006 69 173 4.3 8.7 0.00 0.00 0.00 38 1013.7
20260501195505 68 171 4.3 8.7 0.00 0.00 0.00 38 1013.8